TimePDT,TemperatureF,Dew PointF,Humidity,Sea Level PressureIn,VisibilityMPH,Wind Direction,Wind SpeedMPH,Gust SpeedMPH,PrecipitationIn,Events,Conditions,WindDirDegrees,DateUTC
12:53 AM,63.0,44.1,50,29.90,10.0,SSW,11.5,18.4,N/A,,Clear,210,2013-05-15 07:53:00
1:53 AM,59.0,43.0,55,29.89,10.0,SW,13.8,18.4,N/A,,Clear,220,2013-05-15 08:53:00
2:53 AM,57.9,43.0,58,29.89,10.0,SSW,9.2,16.1,N/A,,Clear,210,2013-05-15 09:53:00
3:53 AM,57.0,43.0,59,29.90,10.0,SW,8.1,-,N/A,,Clear,220,2013-05-15 10:53:00
4:53 AM,54.0,43.0,66,29.91,10.0,Variable,6.9,-,N/A,,Clear,0,2013-05-15 11:53:00
5:53 AM,54.0,43.0,66,29.91,10.0,SSW,13.8,19.6,N/A,,Clear,210,2013-05-15 12:53:00
6:53 AM,55.0,43.0,64,29.95,10.0,SW,9.2,-,N/A,,Clear,230,2013-05-15 13:53:00
7:53 AM,59.0,44.1,58,29.98,10.0,SW,9.2,-,N/A,,Clear,230,2013-05-15 14:53:00
8:53 AM,63.0,44.1,50,29.98,10.0,SSW,8.1,-,N/A,,Clear,210,2013-05-15 15:53:00
9:53 AM,66.9,45.0,45,29.99,10.0,SSW,9.2,-,N/A,,Clear,210,2013-05-15 16:53:00
10:53 AM,69.1,45.0,42,29.99,10.0,SSW,8.1,-,N/A,,Clear,200,2013-05-15 17:53:00
11:53 AM,72.0,45.0,38,29.99,10.0,SSW,10.4,-,N/A,,Clear,210,2013-05-15 18:53:00
12:53 PM,73.0,46.0,38,29.99,10.0,SSW,11.5,17.3,N/A,,Clear,210,2013-05-15 19:53:00
1:53 PM,75.9,46.9,36,29.98,10.0,SSW,11.5,18.4,N/A,,Clear,200,2013-05-15 20:53:00
2:53 PM,75.9,45.0,33,29.97,10.0,SW,16.1,21.9,N/A,,Clear,220,2013-05-15 21:53:00
3:53 PM,77.0,46.9,34,29.96,10.0,SW,13.8,21.9,N/A,,Clear,220,2013-05-15 22:53:00
4:53 PM,75.9,48.0,37,29.95,10.0,SSW,16.1,23.0,N/A,,Clear,210,2013-05-15 23:53:00
5:53 PM,73.9,46.0,37,29.94,10.0,SSW,10.4,16.1,N/A,,Clear,200,2013-05-16 00:53:00
6:53 PM,71.1,48.0,44,29.93,10.0,SSW,9.2,-,N/A,,Clear,200,2013-05-16 01:53:00
7:53 PM,70.0,48.0,46,29.93,10.0,SSW,9.2,-,N/A,,Clear,210,2013-05-16 02:53:00
8:53 PM,64.0,46.9,54,29.94,10.0,SSW,8.1,-,N/A,,Clear,200,2013-05-16 03:53:00
9:53 PM,61.0,48.0,62,29.94,10.0,South,6.9,-,N/A,,Clear,190,2013-05-16 04:53:00
10:53 PM,62.1,46.9,58,29.94,10.0,SW,4.6,19.6,N/A,,Clear,220,2013-05-16 05:53:00
11:53 PM,63.0,46.0,54,29.94,10.0,SW,11.5,-,N/A,,Clear,220,2013-05-16 06:53:00